アトラス彗星

C/2023 B2 ( ATLAS )

English version
Home page
Updated on January 4, 2024

---------------------------------------------------------------------

・ プロフィール

発見日 2023年1月21日
発見光度 18.8等
発見者 Asteroid Terrestrial-Impact Last Alert System (ATLAS) search program

・ 写真集

・ 軌道要素

Epoch 2023 Sept. 13.0 TT = JDT 2460200.5
T 2023 Mar. 10.48946 TT                                 Rudenko
q   1.7430345            (2000.0)            P               Q
z  +0.0016555      Peri.  317.39380     -0.89552008     -0.18846948
 +/-0.0000023      Node   218.12092     +0.12902059     -0.97694036
e   0.9971143      Incl.   40.77178     -0.42590781     +0.10033341
>From 1072 observations 2022 Nov. 16-2023 July 16, mean residual 0".8.

・ 星図

・ 光度変化

        m1 = 9.0 + 5 logΔ + 25.0 log r(t - 50)

---------------------------------------------------------------------

軌道要素はM.P.E.C. 2023-X256に掲載されたものです。
星図はステラナビゲータ Ver.10 (アストロアーツ) で作成したものです。
光度グラフはComet for Windowsで作成したものです。

---------------------------------------------------------------------

Copyright(C) Seiichi Yoshida (comet@aerith.net). All rights reserved.